Vertical_Velocity
10 20 16 7 9 2 4 3 4 1 -3 8 3 2 4 1 9 -1 -1 2 0 -2 2 1 -1 -3 -4 -2 2 -1 -5 1 -1 -1 -5 -3 -5 -3 -1 -1 -1 -6 1 -7 0 2 1
4 2 3 2 -0 -3 -2 3 -4 -0 -3 -3 -2 2 3 2 2 -0 4 1 -3 -0 2 0 -1 -4 -2 -1 -3 -0 -7 3 -4 -1 -5 -2 -5 -6 3 0 -1 -1 -4 -3 2 5 -3
0 2 -0 1 -1 1 -1 -0 1 7 9 4 -11 -1 3 -3 3 3 5 1 2 1 -1 -0 -3 -1 -0 -3 4 -7 -1 -1 -1 -1 -5 -6 -2 -4 -2 -4 -4 2 4 -6 4 -2 2
-6 -7 -7 -7 -5 0 3 4 22 11 9 3 -8 -3 1 1 2 2 1 2 0 2 2 -1 -0 1 2 -3 -2 -6 -3 -1 -1 -3 -4 -1 -1 -6 -7 -6 -6 -6 -13 -10 3 -4 13
1 -0 3 3 9 -3 -1 7 15 9 7 3 -1 4 -3 3 4 -0 -0 -3 -0 3 -1 0 2 -1 -1 -2 -5 -3 -0 1 -0 -3 -0 -5 -3 -5 -5 -4 -0 -4 -2 -6 -6 -11 -3
-1 -2 3 6 7 1 -2 2 14 7 -4 -1 3 1 5 1 5 2 1 -1 3 4 2 2 -0 -3 -2 -1 -3 -2 2 -2 1 -1 -4 -3 -1 -4 -2 1 -0 -2 -4 -1 -1 9 -5
-1 8 4 -3 -2 -1 1 -3 -3 3 -4 -3 -2 -1 4 4 -2 -2 1 4 2 1 -1 -1 -2 -2 1 -4 -1 3 -1 -2 -1 0 1 1 -2 -3 -4 -6 -1 -2 -0 -0 -9 -3 -8
5 -1 -1 -2 1 2 -3 -3 -8 -7 -4 -6 0 1 -0 5 5 1 4 4 6 2 -1 1 -0 1 -2 2 0 -2 -6 -0 4 -1 -3 -5 -9 -8 -1 1 -6 -2 -5 -5 -4 -3 -2
5 3 -5 -4 0 2 -1 -5 0 -2 -3 -7 -1 7 5 -7 0 1 -3 -0 1 -1 0 -2 -1 -4 1 3 -6 -4 6 1 -1 2 0 -2 -5 -3 -4 -1 -9 -4 -7 -2 -3 -2 -0
6 0 -6 1 -7 -10 -11 -7 -10 -7 -9 -5 1 3 1 -1 0 -1 1 -2 -2 -5 3 0 -1 -0 1 -2 -3 5 -0 1 -1 -2 1 -6 -6 -7 -4 -2 -4 -5 -5 -7 -4 3 -2
-18 -11 -1 -5 2 -6 -3 -3 -2 -2 -3 -4 -10 -8 -1 6 1 -1 -5 -0 -3 -3 4 3 0 2 -0 -4 -0 4 -3 -5 -6 -7 -0 -7 -5 -3 -3 -2 -3 -2 1 -2 -5 -4 -4
-12 2 -20 -4 -10 -5 -8 -3 -1 -7 -6 -11 -8 -3 -6 -1 -3 -5 -3 -2 5 2 -2 -0 4 2 -3 1 -2 0 -2 -8 -1 -6 -3 -5 1 3 -3 -1 1 1 3 1 8 5 -2
-8 -3 -7 -13 -7 -5 -1 -4 -2 -6 -3 -5 -3 1 -5 1 1 -0 0 -2 -2 -1 1 0 -1 -2 -0 -1 3 -2 -5 -5 -2 -2 -8 -3 1 -1 -0 3 4 23 14 6 2 6 20
-6 -8 -9 -6 -5 -7 -3 1 -1 -2 -3 -8 -8 -1 -5 -1 -0 -1 -1 -2 5 -1 -2 -2 0 1 2 -0 -1 -2 -4 -4 -2 -4 -5 -3 -2 -2 0 10 8 13 -1 12 18 -2 4
-2 -0 -7 -2 -9 -4 -7 -4 -0 -3 1 2 6 2 -2 -1 -6 -3 0 1 -5 -5 2 3 -2 3 0 -2 -1 -6 -2 -4 -1 -5 -7 1 -3 -0 2 -0 5 8 -6 6 3 10 11
1 0 -2 1 -5 -5 -8 -9 -8 -4 3 7 0 2 5 -3 -3 -5 -4 -4 -8 0 -5 -1 8 -0 -3 -5 -3 0 -4 -2 -4 -4 -4 3 -2 0 2 1 9 4 8 -3 7 3 -1
0 2 -1 1 5 -1 -4 -1 -3 -5 -4 -4 -6 1 -4 1 -3 -9 6 -3 -3 -2 -2 3 -4 -3 -2 -2 -4 -4 -5 -4 -3 -2 0 -3 -5 4 -3 2 2 0 -1 6 5 -6 8
-1 0 0 -0 2 1 3 -8 -2 2 -0 -0 -18 6 -4 1 -3 -3 -1 2 3 0 -1 -0 -3 -2 -5 -3 -2 -0 -3 1 -4 -1 -1 0 1 3 2 2 3 0 4 -2 9 -1 9
1 -3 -2 -1 -1 -2 1 5 -4 -8 -9 -2 -8 -1 -2 -1 0 -0 -2 -1 -1 1 1 -1 -4 -3 -3 -3 -2 -2 -3 -2 -3 -4 -4 2 3 0 -1 -0 2 1 -1 3 2 0 8
-0 8 0 -2 -1 1 -2 1 2 -3 -7 -5 -1 -6 -4 -0 -3 -1 -1 -3 -3 -2 -1 -1 -3 -5 -1 -3 -2 -3 -4 -4 -3 -2 -1 -1 -1 2 0 -1 0 0 -1 -0 1 5 -0
-3 -2 4 -2 -2 -4 -1 -1 1 1 0 -8 -1 -5 -4 -1 -3 -1 0 -4 -1 -2 -1 -2 -2 -3 -5 -0 -1 -3 -6 -5 -6 -0 3 0 -1 -1 0 -1 0 2 -2 -3 -1 0 -5
-1 -3 5 3 1 1 2 1 -0 1 -0 6 -4 -7 -2 -4 -3 -2 0 2 0 1 0 1 -2 -2 -4 -6 -7 -6 -6 -4 -1 -1 -3 -4 1 -1 -3 -3 -4 -5 -1 -1 -1 0 0
7 2 -1 -2 0 -2 -7 -2 3 -3 3 2 4 1 -9 -3 -2 -2 -1 3 2 -1 1 2 0 2 2 -2 -4 -3 -4 -3 -4 -2 -4 -3 -6 -5 -1 -3 -4 -1 3 2 -1 1 -0
-2 3 0 -1 1 -1 -3 -3 -2 5 -3 -1 1 -1 4 -6 -7 -5 -3 -3 -2 -1 1 1 2 4 5 1 1 1 -1 -0 -1 1 1 -0 2 1 0 1 -1 -1 -2 0 1 0 -1
-3 2 3 0 -1 1 1 0 -0 -2 0 8 -3 1 0 2 -0 -4 -4 -3 -2 -3 -2 1 0 -2 -2 0 1 -1 -1 3 1 0 -1 -0 -1 -1 -1 -1 -2 -4 -4 -4 -3 1 5
-3 -3 -1 4 -2 6 -2 -3 -4 -2 -0 -0 6 0 -5 1 1 -1 -2 -2 -2 -1 -2 -3 -1 0 0 0 1 -3 -2 1 -0 -1 -3 -2 -1 1 2 1 3 3 1 -1 -2 1 -1
-2 -2 -5 3 5 -1 -3 -1 -1 2 -1 -1 -1 1 2 -5 0 2 -2 -2 -3 -1 -0 -1 -1 -1 1 2 -0 0 0 1 -1 -3 -3 -1 -0 0 -1 -2 -1 0 -1 -3 -5 -5 -2
-1 0 -2 -1 -0 5 -2 -3 1 -2 -4 3 -4 -2 1 2 -2 -3 4 -1 0 -3 -3 -1 -2 0 -1 -2 -2 -2 1 1 2 3 2 2 2 2 2 1 1 1 1 -1 -1 -1 -2
-4 -1 -2 -3 2 -5 0 2 2 4 2 -7 -1 1 -3 -0 4 1 -3 4 1 -0 -2 -2 -2 -1 0 -0 -0 -1 -2 -2 -2 -3 -1 1 1 -1 -2 -1 -0 -1 1 1 0 -0 -1
Height
5620 5611 5602 5595 5590 5585 5582 5582 5583 5583 5584 5591 5597 5605 5612 5619 5625 5629 5637 5644 5650 5655 5660 5662 5663 5666 5669 5672 5672 5671 5671 5672 5671 5671 5671 5670 5669 5668 5665 5662 5662 5661 5664 5667 5671 5671 5672
5600 5594 5587 5580 5576 5571 5569 5566 5566 5569 5570 5571 5578 5588 5596 5604 5611 5618 5626 5632 5639 5646 5651 5653 5655 5658 5662 5666 5664 5664 5662 5665 5662 5662 5660 5659 5656 5656 5653 5650 5650 5647 5648 5652 5653 5654 5654
5588 5578 5569 5563 5558 5554 5552 5551 5554 5557 5558 5558 5565 5576 5584 5591 5600 5608 5615 5622 5631 5638 5642 5645 5648 5651 5655 5658 5658 5657 5657 5656 5653 5652 5651 5649 5647 5646 5643 5640 5639 5635 5636 5636 5636 5635 5641
5577 5567 5558 5551 5545 5539 5536 5536 5541 5546 5548 5550 5555 5567 5574 5583 5590 5599 5607 5614 5623 5630 5635 5639 5643 5647 5650 5651 5652 5651 5650 5648 5647 5646 5646 5644 5642 5639 5637 5632 5630 5627 5626 5626 5624 5623 5624
5567 5556 5546 5537 5527 5525 5524 5527 5533 5538 5540 5544 5547 5555 5565 5575 5582 5592 5602 5609 5617 5625 5630 5634 5640 5643 5645 5646 5648 5646 5644 5643 5643 5641 5640 5638 5635 5631 5628 5623 5621 5617 5615 5612 5612 5607 5605
5559 5547 5536 5524 5515 5516 5518 5521 5528 5533 5537 5541 5543 5548 5556 5568 5577 5589 5598 5608 5616 5621 5627 5631 5636 5641 5642 5643 5643 5641 5640 5639 5638 5635 5633 5631 5628 5623 5622 5618 5613 5607 5602 5602 5601 5600 5593
5550 5541 5529 5521 5516 5516 5518 5522 5527 5531 5535 5538 5542 5548 5555 5564 5574 5586 5597 5607 5613 5620 5625 5630 5634 5637 5638 5639 5639 5639 5637 5635 5632 5630 5627 5623 5621 5619 5614 5609 5605 5600 5598 5595 5593 5592 5587
5549 5537 5529 5524 5522 5520 5522 5525 5529 5532 5536 5539 5539 5547 5557 5564 5576 5585 5596 5604 5612 5620 5626 5628 5631 5633 5635 5636 5637 5637 5635 5631 5627 5623 5619 5617 5615 5612 5607 5605 5603 5600 5598 5595 5592 5588 5584
5553 5540 5534 5531 5529 5527 5527 5529 5531 5534 5537 5540 5542 5549 5559 5567 5576 5588 5595 5606 5613 5619 5625 5628 5630 5632 5634 5636 5636 5635 5631 5628 5624 5619 5615 5613 5612 5609 5607 5607 5605 5604 5600 5597 5594 5591 5588
5562 5550 5542 5539 5536 5535 5534 5534 5535 5536 5539 5543 5549 5554 5562 5571 5582 5591 5600 5607 5615 5620 5623 5627 5630 5632 5635 5636 5636 5634 5632 5629 5624 5619 5616 5615 5614 5613 5611 5609 5606 5603 5602 5599 5597 5594 5592
5577 5560 5551 5547 5546 5543 5539 5536 5533 5534 5539 5546 5554 5563 5571 5580 5587 5596 5605 5610 5616 5619 5624 5628 5631 5633 5634 5636 5637 5637 5636 5632 5630 5627 5624 5622 5618 5616 5615 5613 5610 5608 5605 5603 5601 5597 5596
5604 5585 5569 5559 5557 5554 5550 5545 5542 5544 5550 5558 5566 5575 5582 5589 5597 5604 5608 5612 5617 5623 5624 5629 5632 5633 5635 5636 5636 5637 5637 5637 5635 5632 5629 5626 5622 5619 5617 5615 5612 5609 5609 5604 5601 5601 5600
5627 5612 5599 5583 5576 5573 5568 5566 5566 5568 5570 5575 5581 5588 5594 5600 5605 5608 5611 5616 5622 5626 5629 5632 5633 5634 5636 5636 5637 5638 5638 5638 5636 5634 5631 5627 5625 5622 5619 5618 5616 5612 5609 5610 5609 5605 5606
5642 5631 5622 5611 5603 5594 5590 5587 5587 5589 5593 5596 5599 5603 5605 5609 5612 5615 5619 5624 5628 5630 5632 5634 5635 5636 5637 5637 5639 5640 5640 5639 5638 5635 5633 5630 5628 5625 5621 5620 5620 5618 5617 5614 5613 5614 5612
5656 5647 5637 5627 5623 5616 5610 5606 5605 5605 5605 5610 5613 5616 5617 5619 5622 5625 5629 5632 5633 5634 5636 5636 5637 5639 5639 5639 5641 5641 5641 5641 5640 5638 5637 5633 5631 5628 5625 5623 5622 5621 5622 5620 5619 5617 5616
5676 5664 5654 5644 5637 5634 5628 5622 5620 5618 5619 5621 5623 5625 5628 5630 5632 5635 5637 5638 5638 5639 5639 5641 5642 5642 5642 5643 5643 5642 5643 5643 5643 5642 5640 5637 5636 5632 5630 5629 5628 5626 5626 5625 5624 5622 5621
5689 5680 5672 5663 5653 5647 5643 5639 5634 5631 5631 5632 5632 5634 5637 5639 5642 5643 5645 5644 5644 5643 5644 5646 5646 5646 5646 5647 5646 5645 5645 5646 5645 5645 5644 5642 5641 5640 5637 5636 5635 5634 5633 5631 5627 5626 5628
5703 5695 5689 5681 5674 5666 5659 5654 5650 5647 5644 5643 5641 5645 5646 5649 5652 5651 5652 5651 5650 5649 5649 5650 5650 5651 5650 5650 5649 5649 5648 5649 5649 5650 5648 5647 5647 5645 5644 5641 5641 5641 5640 5639 5639 5637 5636
5714 5706 5702 5696 5689 5684 5679 5672 5667 5665 5660 5658 5654 5656 5656 5657 5658 5659 5659 5658 5657 5655 5654 5653 5655 5654 5654 5654 5654 5653 5653 5653 5652 5652 5654 5652 5651 5650 5650 5650 5647 5647 5646 5646 5645 5646 5643
5721 5717 5712 5707 5701 5696 5691 5688 5684 5678 5674 5673 5670 5668 5666 5665 5664 5665 5664 5664 5663 5662 5660 5659 5659 5658 5659 5659 5658 5658 5658 5658 5658 5658 5657 5656 5655 5654 5654 5652 5653 5654 5653 5652 5651 5651 5651
5727 5722 5720 5716 5712 5707 5703 5698 5695 5692 5687 5684 5682 5680 5678 5675 5674 5672 5671 5669 5668 5668 5666 5665 5665 5664 5666 5665 5664 5664 5664 5664 5664 5662 5661 5660 5660 5660 5659 5658 5658 5658 5658 5657 5656 5655 5655
5728 5726 5723 5719 5717 5715 5710 5707 5705 5701 5699 5697 5692 5689 5686 5685 5684 5682 5681 5678 5676 5674 5673 5672 5671 5672 5672 5672 5672 5671 5670 5669 5669 5669 5667 5667 5666 5665 5664 5663 5662 5662 5661 5661 5661 5660 5660
5729 5724 5724 5723 5720 5716 5718 5714 5711 5710 5708 5706 5703 5699 5696 5694 5692 5691 5690 5688 5686 5684 5682 5680 5679 5679 5680 5680 5679 5678 5677 5676 5675 5674 5672 5670 5670 5669 5668 5667 5666 5666 5666 5666 5666 5666 5666
5727 5725 5723 5720 5721 5723 5722 5720 5719 5715 5713 5712 5710 5708 5704 5701 5699 5698 5696 5695 5694 5692 5691 5690 5688 5686 5686 5685 5685 5683 5682 5680 5679 5678 5676 5675 5674 5673 5673 5672 5671 5670 5668 5669 5669 5668 5667
5726 5724 5722 5717 5721 5721 5721 5721 5719 5718 5715 5714 5715 5713 5711 5708 5705 5703 5702 5701 5700 5699 5698 5697 5696 5694 5693 5691 5690 5688 5687 5685 5683 5682 5681 5680 5678 5678 5677 5676 5675 5672 5671 5670 5669 5669 5667
5727 5723 5721 5718 5718 5717 5721 5722 5719 5718 5717 5715 5714 5713 5713 5713 5711 5707 5706 5705 5704 5703 5702 5701 5700 5698 5697 5695 5693 5691 5690 5689 5688 5687 5685 5684 5682 5681 5678 5677 5675 5673 5670 5669 5668 5667 5665
5727 5722 5718 5716 5714 5714 5715 5715 5714 5714 5714 5714 5715 5713 5712 5712 5713 5711 5709 5707 5706 5705 5705 5704 5702 5701 5701 5699 5698 5696 5694 5692 5691 5688 5687 5685 5683 5682 5680 5679 5677 5676 5673 5671 5670 5671 5666
5723 5721 5718 5714 5712 5709 5707 5709 5708 5712 5712 5713 5715 5714 5712 5710 5710 5711 5711 5709 5707 5706 5706 5706 5705 5703 5702 5700 5700 5698 5697 5695 5693 5692 5690 5688 5685 5683 5681 5679 5677 5674 5673 5671 5670 5667 5665
5717 5716 5714 5712 5709 5706 5700 5701 5704 5704 5708 5708 5708 5709 5709 5710 5709 5707 5708 5708 5707 5705 5704 5705 5704 5703 5702 5701 5700 5698 5697 5695 5694 5692 5690 5689 5687 5684 5682 5680 5678 5675 5673 5671 5668 5667 5665